Wind_Speed
4 8 10 11 14 13 15 17 22 25 28 27 25 25 25 25 26 26 27 28 28 29 28 27 26 25 23 22 21 17 14 24 22 24 19 19 22 23 24 22 22 23 28
7 6 9 10 12 13 12 14 19 22 24 24 23 20 20 22 23 24 25 26 25 28 29 28 29 24 24 24 25 28 21 12 13 6 12 4 9 15 26 26 28 26 26
6 6 9 8 9 11 11 12 16 19 21 21 21 22 21 22 26 25 25 26 24 26 27 27 30 26 23 24 22 24 23 18 16 13 7 3 3 5 6 14 18 23 27
4 6 12 7 7 8 9 9 11 15 18 20 21 23 22 21 20 21 22 23 23 25 26 25 30 27 23 23 23 23 23 25 20 21 11 23 20 4 7 12 16 13 18
7 8 11 6 6 5 7 8 8 10 12 16 18 20 20 19 20 21 22 23 22 23 24 23 27 26 24 25 25 25 23 21 20 17 21 22 18 21 11 8 11 20 25
6 7 7 5 3 4 4 4 3 6 8 11 14 16 17 17 18 19 21 22 22 22 23 21 24 24 21 25 25 24 23 23 19 17 17 16 8 18 11 9 11 11 23
6 6 7 3 1 2 4 3 2 1 3 6 8 11 14 15 16 16 17 20 22 21 21 21 21 22 20 21 23 23 26 26 22 20 18 17 18 20 19 19 17 15 23
6 9 9 7 4 4 6 6 6 5 3 3 4 6 9 12 13 14 13 15 18 17 17 18 18 19 20 20 20 23 26 26 22 20 20 20 21 23 21 14 15 9 11
8 12 13 10 7 6 7 10 9 9 8 7 7 7 7 9 11 12 12 12 15 16 16 16 17 18 18 19 20 21 25 26 22 21 21 20 22 26 23 22 21 11 6
8 13 13 13 12 12 12 11 13 13 12 11 11 10 8 9 11 11 12 12 13 14 15 16 17 18 16 18 19 21 22 25 24 21 21 19 21 24 24 23 23 19 11
9 14 16 16 15 16 17 16 16 16 16 16 15 14 12 11 11 12 12 13 13 13 14 15 17 17 14 16 16 18 20 23 24 21 21 20 22 20 20 23 23 21 19
9 16 17 16 18 20 22 21 20 19 20 19 19 18 16 15 14 13 13 13 14 13 12 13 15 15 14 15 15 17 19 21 23 22 20 20 21 17 19 21 22 20 19
8 16 16 19 21 22 24 25 24 24 23 21 21 21 21 20 19 17 15 14 14 15 13 12 13 15 15 14 13 13 16 18 19 20 18 17 18 17 19 20 23 21 19
6 6 11 13 14 17 20 26 28 26 23 22 23 26 27 27 24 21 19 18 16 16 15 14 13 14 15 14 12 13 16 17 17 17 17 15 16 16 19 18 23 24 22
7 6 10 15 18 19 21 21 21 22 24 25 28 31 32 32 29 26 25 23 21 20 18 16 15 14 15 14 12 13 17 16 16 16 16 17 14 13 16 18 23 23 18
6 7 13 17 19 20 21 21 22 22 22 24 29 33 37 38 37 34 31 27 27 24 22 19 17 15 15 14 13 13 15 13 14 17 18 18 13 15 15 13 19 17 16
6 9 17 21 25 28 28 28 29 29 29 27 27 29 31 36 40 43 40 34 32 29 26 22 18 17 16 15 15 13 13 12 14 13 17 15 14 13 13 17 21 16 15
11 16 20 23 24 25 29 30 29 28 28 27 29 31 34 35 36 38 42 40 37 32 30 25 22 19 17 17 17 14 12 12 13 13 13 12 11 14 17 20 22 19 19
12 14 19 20 23 28 29 28 29 29 31 31 33 35 35 36 37 36 38 44 43 39 29 26 23 21 18 17 19 16 15 15 14 13 12 10 12 18 16 17 19 21 21
13 17 20 20 23 29 30 26 25 25 26 30 31 33 34 34 35 38 39 41 47 42 29 24 26 23 21 16 20 19 19 19 17 15 13 9 11 13 11 13 18 25 24
13 16 18 16 19 21 23 21 22 23 27 32 33 33 35 38 38 37 37 39 36 27 22 18 20 26 24 19 20 20 24 23 21 19 16 13 12 11 13 15 19 23 22
13 18 18 20 24 26 24 25 25 29 30 32 34 35 36 36 39 34 32 30 27 24 31 30 25 30 25 21 20 21 24 24 24 23 20 17 15 15 17 19 20 22 19
9 17 19 20 25 26 26 26 28 29 29 29 32 33 34 32 33 31 27 25 26 24 19 13 18 28 20 17 17 18 20 24 28 28 24 21 20 20 21 20 20 20 19
13 17 20 20 23 26 25 28 31 30 29 29 31 30 29 29 29 27 25 23 23 20 17 14 13 15 16 13 12 15 17 19 20 22 21 21 21 22 22 22 20 21 20
14 16 18 20 24 25 26 29 28 28 29 29 27 27 26 28 29 27 24 24 25 22 17 17 17 13 10 12 14 16 16 18 19 21 21 20 21 22 21 23 22 22 21
16 17 20 24 27 27 28 30 28 29 28 28 27 28 28 28 28 28 32 28 25 25 25 24 17 16 17 17 14 15 19 20 19 18 19 21 22 23 22 24 25 24 24
Wind_Direction
136 120 108 91 84 80 66 52 50 42 36 35 38 41 41 40 40 36 33 31 28 23 22 20 19 18 21 15 17 2 260 279 292 312 323 304 269 261 262 252 251 257 258
104 129 114 91 81 77 72 62 60 46 42 39 39 41 37 37 37 32 32 30 28 26 24 23 19 17 18 18 18 13 8 340 334 298 320 304 307 278 263 264 252 252 259
103 103 134 107 94 85 81 63 58 48 43 39 38 36 34 32 27 26 25 26 29 26 23 23 21 19 20 25 25 17 16 351 350 325 243 282 249 345 300 269 276 261 256
92 129 150 140 122 107 96 87 63 49 40 36 40 38 34 26 19 20 20 21 25 26 24 21 18 21 22 19 10 8 6 3 359 355 337 265 256 264 299 266 269 297 270
140 134 163 151 146 125 100 97 75 61 47 36 36 37 37 28 16 13 16 19 21 24 22 20 17 20 17 12 8 1 1 357 351 355 346 334 278 248 234 279 273 270 273
163 144 148 156 164 169 127 115 84 64 46 34 36 33 31 26 18 12 8 10 13 16 18 17 15 16 14 9 10 8 7 1 355 351 350 344 331 333 254 238 257 260 268
173 153 165 176 177 200 203 204 220 42 43 22 27 25 25 23 20 12 4 1 3 9 11 8 9 13 12 7 4 11 12 6 2 1 356 349 346 335 330 316 264 252 258
197 192 191 197 200 247 240 239 239 256 270 316 352 3 10 15 17 11 2 0 357 358 4 3 2 2 7 10 12 12 12 8 3 4 2 358 355 355 340 332 341 298 247
208 209 208 212 227 254 260 254 249 248 253 271 296 312 340 357 3 4 0 356 356 352 353 357 358 357 356 1 4 8 9 10 9 5 4 360 354 354 354 354 3 331 340
224 224 222 227 237 249 257 260 252 253 257 261 276 290 307 330 341 345 349 350 350 348 345 349 352 355 354 353 354 359 4 7 8 4 4 6 354 345 350 359 2 6 10
221 230 232 237 242 250 252 257 252 251 255 260 263 275 284 296 314 326 332 338 339 340 337 338 343 348 346 348 348 351 355 1 4 4 1 0 356 355 352 354 2 7 14
235 240 245 253 252 254 254 253 252 250 259 264 255 263 273 281 293 305 316 316 323 325 324 322 331 336 340 336 337 342 348 351 356 357 355 357 356 357 347 352 355 2 2
255 254 261 262 261 267 266 259 253 253 260 264 256 258 266 270 282 289 298 299 301 310 304 302 315 322 327 323 317 326 333 337 344 349 348 347 347 347 345 349 349 353 348
355 4 355 352 343 331 312 294 278 275 275 270 262 258 263 268 274 279 283 286 284 287 291 287 294 304 304 308 300 312 321 325 330 338 343 335 339 337 339 343 346 346 349
31 19 7 4 3 1 359 353 339 303 284 270 269 267 268 265 267 266 272 274 271 273 278 278 276 288 284 290 279 300 314 314 318 325 333 332 329 319 325 337 341 345 349
1 347 351 355 352 344 337 332 327 320 317 309 296 286 280 279 267 262 263 264 261 261 267 269 265 280 279 275 267 290 305 302 308 316 324 326 320 319 329 330 339 340 338
348 347 349 346 344 345 346 340 337 334 324 315 315 312 308 297 286 274 259 254 253 253 255 259 254 267 268 261 262 280 294 293 300 306 317 321 319 318 330 319 329 332 328
15 14 6 4 7 5 1 357 357 355 350 344 337 330 322 311 300 287 273 254 251 245 249 251 247 256 255 253 257 272 276 284 297 304 310 309 312 308 316 318 322 326 326
19 6 5 4 5 4 2 358 355 352 349 345 338 332 324 311 305 295 283 264 252 246 241 245 243 243 252 252 248 258 263 273 289 296 307 292 284 300 307 317 318 321 325
30 22 19 14 10 5 5 357 354 351 346 340 333 329 327 321 309 300 289 276 259 248 241 244 248 246 246 252 244 249 255 264 276 286 293 299 312 312 315 316 318 312 318
27 17 13 6 356 351 351 343 339 341 336 335 337 336 337 334 329 321 305 284 260 245 254 260 272 260 250 253 244 250 250 260 269 273 286 291 298 310 319 321 312 311 316
15 11 2 351 346 346 342 339 335 334 334 334 331 331 335 336 333 329 331 304 263 245 258 274 253 251 253 245 252 249 251 259 263 271 283 284 292 297 300 305 310 312 300
8 1 353 344 342 338 336 328 327 328 327 327 326 324 323 323 329 331 324 327 324 304 264 254 276 274 258 256 259 260 258 262 265 273 276 281 282 286 293 299 306 307 298
354 348 344 339 332 332 328 322 322 323 320 318 319 318 315 316 318 317 318 319 312 301 303 295 279 280 279 275 274 274 276 276 273 274 275 279 281 280 286 295 303 308 300
339 339 335 329 324 327 327 323 325 325 319 315 314 316 317 317 316 314 311 308 306 301 296 297 291 275 273 285 298 293 284 284 288 291 287 283 278 277 279 290 292 305 302
330 334 336 330 326 327 324 322 324 325 322 321 319 314 312 308 309 307 308 307 304 303 302 295 289 300 306 307 290 279 286 290 292 284 284 285 280 275 282 290 289 294 298
Height
926 926 925 924 923 922 921 918 915 912 907 904 901 899 898 897 894 891 889 886 883 880 875 872 868 865 862 859 857 851 848 849 851 853 848 843 841 841 843 842 842 843 846
925 926 926 925 924 923 922 920 917 914 911 908 906 904 902 900 897 894 891 888 885 882 879 875 871 868 865 861 857 855 851 851 853 852 851 847 839 836 836 838 836 835 838
927 926 926 925 924 923 923 920 918 916 914 912 909 906 903 900 897 896 893 890 888 885 881 878 874 870 867 864 862 859 857 856 854 851 850 849 843 836 833 834 834 832 830
926 926 926 925 924 924 922 920 919 918 916 913 910 907 905 903 903 900 897 894 890 887 883 880 876 872 869 867 865 862 860 856 854 849 848 846 843 839 835 832 831 829 827
926 926 926 925 925 923 922 920 919 918 917 915 912 910 908 906 904 901 898 895 892 889 885 881 878 874 871 868 866 863 860 858 855 853 849 843 837 835 835 831 827 826 825
926 925 925 925 924 923 921 921 919 917 916 915 913 911 909 907 905 901 899 896 893 889 885 882 879 876 873 869 866 864 861 857 854 852 850 848 844 839 825 826 825 822 820
924 924 925 924 923 921 920 919 918 917 915 914 913 911 909 906 905 903 900 897 893 890 886 883 880 877 874 871 868 864 860 857 853 850 848 847 844 842 832 827 818 816 814
925 924 923 922 920 919 918 918 917 916 914 913 911 909 907 905 903 901 900 897 894 891 887 884 882 878 875 871 868 865 861 857 854 850 846 844 843 839 837 831 825 811 805
923 921 920 918 918 918 917 915 915 914 912 911 909 907 905 903 901 900 898 896 894 890 887 885 882 878 875 871 868 865 862 858 854 850 846 844 842 840 835 830 826 827 813
920 918 916 914 914 915 915 913 911 911 910 908 907 905 904 901 899 897 895 893 890 887 885 883 880 877 874 871 869 865 862 857 854 852 847 844 842 840 836 832 827 825 823
915 915 913 912 912 911 911 910 909 907 906 905 903 902 900 898 896 894 892 889 887 885 883 880 877 875 872 870 867 864 861 857 853 851 848 844 841 838 836 833 829 825 821
910 910 910 910 909 907 906 905 904 903 901 900 899 897 896 894 891 889 887 886 884 882 880 878 876 873 871 868 865 863 861 858 854 850 846 844 840 837 836 833 830 826 823
908 906 906 906 905 904 903 901 899 897 897 896 895 894 891 889 886 884 882 880 879 878 876 875 873 870 868 865 862 860 857 855 854 850 846 843 840 837 835 833 830 827 824
910 909 907 906 905 903 901 899 898 896 895 892 890 887 885 883 881 879 876 875 874 872 870 870 867 865 863 861 859 857 854 852 849 847 846 842 839 836 834 831 829 825 821
911 910 909 908 905 902 899 897 894 892 890 887 885 882 879 877 875 872 870 868 867 865 864 862 861 860 858 857 855 853 851 849 846 844 842 841 838 835 833 830 827 823 820
913 911 909 907 904 902 899 897 894 891 888 885 881 878 875 872 869 866 863 860 859 858 857 855 855 854 853 852 851 849 847 845 843 840 838 836 835 831 829 828 826 823 819
914 912 910 907 904 901 898 894 890 886 883 880 876 873 869 865 862 858 855 853 849 849 849 848 848 847 847 847 845 844 843 841 839 836 834 831 830 828 825 824 821 819 818
917 915 913 908 904 900 896 892 888 884 880 876 873 869 865 860 855 851 847 844 842 840 841 840 840 840 838 839 840 839 838 837 835 832 830 827 825 824 821 818 816 814 812
919 916 913 909 905 900 895 892 888 884 879 875 871 866 861 855 849 843 838 835 832 831 832 832 833 832 831 831 832 833 832 832 831 828 826 823 821 819 817 814 811 810 808
919 915 911 908 904 900 896 892 888 884 880 875 870 864 858 851 844 837 831 827 823 820 822 823 826 826 825 823 824 825 826 825 825 824 821 819 818 815 812 809 807 803 802
916 914 911 908 905 901 897 892 888 883 878 872 866 860 853 845 838 830 824 819 816 817 819 818 820 823 821 816 816 818 818 818 818 818 815 813 812 811 809 806 803 800 798
913 911 909 906 902 898 894 889 884 880 874 868 862 856 849 843 837 830 822 818 815 809 811 809 810 811 812 810 811 810 810 812 812 810 809 808 806 805 804 803 800 797 794
913 910 907 903 900 896 893 888 883 878 873 868 861 854 848 842 836 829 822 818 814 809 805 801 803 806 805 803 804 805 804 806 806 804 802 801 801 799 798 797 795 792 790
912 909 906 902 898 894 891 887 880 875 870 864 858 853 847 840 834 828 822 816 811 806 803 800 799 799 799 798 798 799 799 800 799 798 796 794 794 793 791 789 788 786 784
910 906 904 900 896 892 888 883 878 873 867 861 855 849 843 837 831 825 819 815 810 805 801 798 796 794 792 792 792 794 793 793 793 792 789 787 786 785 784 783 781 780 777
908 904 901 896 892 888 883 878 874 869 863 857 851 846 839 833 827 821 814 810 806 802 799 795 793 790 789 789 787 787 787 786 785 784 782 780 779 778 776 775 774 772 771